Regional Weather Roundup
Issued by NWS Wakefield, VA

Home | Current Version | Previous Version | Text Only | Print | Product List | Glossary On
Versions: 1 2 3 4 5 6 7 8 9 10 11 12 13 14 15 16 17 18 19 20 21 22 23 24 25 26 27
000
ASUS41 KAKQ 290615
RWRAKQ

REGIONAL WEATHER ROUNDUP
NATIONAL WEATHER SERVICE WAKEFIELD VA
200 AM EDT FRI APR 29 2016

Note: "fair" indicates few or no clouds below 12,000 feet with no
significant weather and/or obstructions to visibility. * = Denotes
station may not report precipitation (e.g., rain,snow,etc.),
thunder or fog.

VAZ042-051-052>054-056-290700-
NORTHERN VIRGINIA

CITY           SKY/WX    TMP DP  RH WIND       PRES   REMARKS
WASH NATIONAL  CLOUDY    48  45  89 NE8       30.01S
DULLES         CLOUDY    47  45  93 NE7       30.01F FOG
FORT BELVOIR   CLOUDY    47  45  93 VRB1      30.01F
QUANTICO       CLOUDY    50  48  93 E10       30.00F
FREDERICKSBRG* CLOUDY    50  50 100 NE6       29.99F
STAFFORD*      CLOUDY    48  46  95 NE6       30.04S FOG
WARRENTON      CLOUDY    49  45  85 NE3       29.99F FOG
CULPEPER*      CLOUDY    49  49  99 NE5       30.00F FOG
MANASSAS*      CLOUDY    46  46 100 NE5       30.01S
LEESBURG*      CLOUDY    46  46 100 CALM      30.02F FOG
WINCHESTER     CLOUDY    46  46 100 E3        29.99S FOG
FRONT ROYAL*   CLOUDY    46  46 100 N3        29.97F
LURAY*         CLOUDY    46  46 100 N3        29.97F FOG
$$

VAZ048-049-060>072-079>083-290700-
CENTRAL AND SOUTH CENTRAL VIRGINIA

CITY           SKY/WX    TMP DP  RH WIND       PRES   REMARKS
RICHMOND       CLOUDY    51  50  96 NE8       29.95F
CHESTERFIELD*  CLOUDY    54  41  62 N7        29.97F
PETERSBURG*    CLOUDY    56  56 100 N9        29.94F
HANOVER        CLOUDY    51  48  89 NE3       29.99F
TAPPAHANNOCK*  CLOUDY    51  51 100 NE6       29.98F FOG
QUINTON*       CLOUDY    51  51  98 MISG      29.96F
CHARLOTTSVILLE CLOUDY    52  49  89 E6        29.97F FOG
GORDONSVILLE*  CLOUDY    50  50 100 NE5       29.97F FOG
ORANGE*        CLOUDY    50  50 100 CALM      30.00F FOG
LOUISA*        CLOUDY    54  54 100 CALM      29.97F FOG
BUMPASS*       CLOUDY    50  49  99 CALM      29.99S
FARMVILLE*     CLOUDY    55  55 100 NE7       29.94F
CREWE*         CLOUDY    55  55 100 NW7       29.97R
FORT PICKETT*  NOT AVBL
CHASE CITY*    CLOUDY    57  55  95 N3        29.94F
CLARKSVILLE*   CLOUDY    59  59 100 N5        29.94S
SOUTH HILL*    CLOUDY    56  56  99 N6        30.00R
LAWRENCEVILLE* CLOUDY    56  56 100 NE5       29.92F
EMPORIA*       CLOUDY    55  55 100 NW7       29.94S
$$

VAZ088>098-290700-
SOUTHEAST VIRGINIA

CITY           SKY/WX    TMP DP  RH WIND       PRES   REMARKS
NORFOLK        CLOUDY    56  54  93 NE6       29.91F
VIRGINIA BEACH CLOUDY    59  53  80 E6        29.90F
NORFOLK NAVAL  CLOUDY    57  55  93 E6        29.92F
WEST POINT*    CLOUDY    53  52  97 N3        29.98F
SALUDA*        CLOUDY    53  52  99 NE5       29.97R
NEWPORT NEWS   CLOUDY    56  55  97 N6        29.94R
LANGLEY AFB    CLOUDY    56  55  97 N8        29.93R
FORT EUSTIS    CLOUDY    56  56 100 N6        29.93R
WILLIAMSBURG*  CLOUDY    55  55 100 CALM      29.96S
HR EXEC AP*      N/A     57  55  94 E5        29.93F
FRANKLIN*      LGT RAIN  56  55  95 E5        29.90F
US460-WAKEFLD  CLOUDY    57  54  89 N3        29.94R
$$

VAZ020-022-025-037-045-290700-
WEST CENTRAL AND SOUTHWEST VIRGINIA

CITY           SKY/WX    TMP DP  RH WIND       PRES   REMARKS
STAUNTON*      FOG       53  53 100 N3        29.98S VSB 1
WAYNESBORO*    CLOUDY    51  50  96 MISG      29.96F
HOT SPRINGS VA FOG       56  56 100 W7        29.96F VSB<1/4
LYNCHBURG      CLOUDY    54  53  97 VRB7      29.96S
DANVILLE       CLOUDY    58  57  97 NE5       29.94R
SOUTH BOSTON*  CLOUDY    58  56  95 NE3       29.94F
MARTINSVILLE   CLOUDY    58  56  94 E3        29.98R
ROANOKE        CLOUDY    58  57  97 SE9       29.97S
BLACKSBURG     MOCLDY    59  59 100 CALM      29.99S FOG
DUBLIN*        FAIR      58  58  99 W3        29.98S
MARION*        FAIR      66  53  62 W16       29.99S
HILLSVILLE*    FAIR      63  54  73 CALM      29.97S
RICHLANDS*     MOCLDY    62  37  39 NW8       30.01R
WISE*          FAIR      61  46  59 W9        30.03S
ABINGDON*      FAIR      60  59  98 CALM      29.99S FOG
$$

MDZ021>025-VAZ099-100-290700-
SOUTHERN MARYLAND AND THE DELMARVA PENINSULA

CITY           SKY/WX    TMP DP  RH WIND       PRES   REMARKS
PATUXENT RIVER DRIZZLE   50  48  93 NE7       29.98F FOG
BAY BRIDGE APT NOT AVBL
LEONARDTOWN    CLOUDY    48  46  93 CALM      30.00S
DOVER          CLOUDY    47  47 100 NE5       30.00S
GEORGETOWN     CLOUDY    49  48  97 E7        30.00R FOG
EASTON         CLOUDY   N/A N/A N/A E5        30.04S
CAMBRIDGE      CLOUDY    46  46 100 E3        29.99S
SALISBURY      CLOUDY    49  49 100 CALM      30.00R FOG
OCEAN CITY     CLOUDY    50  48  93 NE8       29.99R
WALLOPS ISLAND CLOUDY    51  50  96 NE12      29.97F FOG
ACCOMACK*      CLOUDY    50   9  18 NE9       29.95F HAZE
$$

NCZ012>017-030>032-290700-
NORTH CENTRAL AND EASTERN NORTH CAROLINA

CITY           SKY/WX    TMP DP  RH WIND       PRES   REMARKS
ROANOKE RAPIDS CLOUDY    55  55 100 NE6       29.92F FOG
RALEIGH        FOG       66  65  96 NE9       29.92R VSB 1
ELIZABETH CITY CLOUDY    58  57  97 N14       29.92F
AHOSKIE*       CLOUDY    56  55  94 N9        29.94R
EDENTON*       CLOUDY    59  59 100 N8        29.92F FOG
CURRITUCK*     CLOUDY    58  58 100 N12G20    29.94S
KILL DEVIL HLS NOT AVBL
MANTEO         NOT AVBL
CAPE HATTERAS  LGT RAIN  68  67  96 W3        29.88F
TARBORO*       CLOUDY    61  60  97 N8        29.94R FOG
GOLDSBORO      NOT AVBL
WASHINGTON     CLOUDY    66  64  94 NW3       29.90R
GREENVILLE     LGT RAIN  64  64 100 NE5       29.92F
NEW BERN       CLOUDY    67  65  93 S5        29.89F
WILMINGTON     CLEAR     71  65  81 SW10      29.88S
$$

VAZ048-290700-
ELSEWHERE

CITY           SKY/WX    TMP DP  RH WIND       PRES   REMARKS
HARRISBURG PA  DRIZZLE   45  42  89 E5        30.01F FOG
BALTIMORE      CLOUDY    47  43  86 NE6       30.01F
ANNAPOLIS      CLOUDY    48  46  93 MISG      30.00F
ANDREWS AFB    CLOUDY    46  45  95 N8        30.00F
PHILADELPHIA   CLOUDY    45  41  86 NE8       30.03F FOG
HENDERSON NC   CLOUDY    60  60 100 N7        29.95R FOG
GREENSBORO     CLOUDY    61  60  97 NE9       29.93S
ROCKY MOUNT    CLOUDY    64  64 100 N13       29.91R FOG
$$

VAZ100-290700-
MARINE

STATION/POSITION TIME  TEMP    WIND        PRES    WAVE   SWELL
                       AIR SEA DIR/SP/G            HT/PER HT/PER
                 (UTC) (F)     (DEG/KT/KT) (MB)    (FT/S) (FT/S)
BRANDYWINE LGT   0500   48      60/ 17/ 19 1015.7F
CAPE MAY NJ      0500   48 58   60/  6/ 12 1015.2F
LEWES DE         0500   50 55   70/ 17/ 19 1015.6S
15NM E FENWICK I 0550   50 52              1014.6R   5/ 5
OCEAN-CITY-INLET 0500   49 54   50/  5/ 11 1014.4S
WACHAPREAGUE VA  0500   52 59   30/ 14/ 17 1014.5R
THOMAS POINT MD  0600   48 58   50/ 10/ 12 1017.3F
GOOSES REEF MD   0500   50 57   50/  8/ 12 1016.7F   1/ 2
COVE POINT MD    0500   49      70/  7/ 10 1016.2F
SOLOMONS ISLAND  0500   50 61   30/  4/  7   N/A
BISHOPS HEAD MD  0500   51 58   40/  9/ 12 1014.8R
POTOMAC MD       0500   53 59   50/ 10/ 14 1014.6R   1
CAMBRIDGE MD     0500   49 61   20/  8/  9 1015.0F
LEWISETTA VA     0500   53 60   60/  8/ 11 1015.0R
RAPPAHANNOCK LGT 0500           40/ 11/ 12 1014.9F
STINGRAY PT      0500   55 61   60/ 14/ 19 1014.5F   2/ 3
YORK RVR RNG VA  0500   56      70/ 11/ 13 1012.5F
YORKTOWN VA      0500   56 62   70/  9/ 12 1012.9F
JAMESTOWN VA     0500   56 67   80/  6/  8   N/A     0
DOMINION TERM VA 0500   57      50/  3/  5 1013.9F
KIPTOPEKE VA     0500      60   80/ 10/ 15   N/A
CHES BAY BRIDGE  0500   56 59   30/  4/ 14 1014.4R
CAPE HENRY VA    0500   55      50/ 11/ 15   N/A
CHESAPEAKE LGHT  0500   53      50/ 20/ 22 1013.9S
WILLOUBY STN VA  0500   56     350/  6/  6 1015.3R
CAPE HENRY BUOY  0512      56                N/A     4/ 5
CAPE CHARLES BUO 0526      56                N/A     3/ 4   2/ 7
OFFSHORE WE BUOY 0521      55                N/A     4/ 5   2/ 7
64NM E OF VA BCH 0550   58 54   10/  8/  8 1012.6F   3/ 6   3/ 6
DUCK PIER NC     0500   58 66   10/  9/ 12 1012.6F
44100 DUCK FRF   0524      59                N/A     3/ 5
44056 DUCK FRF   0511      58                N/A     3/ 4
OREGON INLET NC  0500   62 70  290/  6/ 10 1012.6S
HATTERAS NC      0500   70 70  240/ 10/ 16 1012.8R
DIAMOND SHLS NC  0550   72 71  240/ 14/ 16 1011.8F   4/ 5   2/ 9
CAPE LOOKOUT NC  0500   70     210/  8/ 10 1012.2F
$$




USA.gov is the U.S. government's official web portal to all federal, state and local government web resources and services.